Regional Weather Roundup
Issued by NWS

Home | Current Version | Previous Version | Text Only | Print | Product List | Glossary Off
Versions: 1 2 3 4 5 6 7 8 9 10 11 12 13 14 15 16 17 18 19 20 21 22 23 24 25 26 27 28 29 30 31 32 33 34 35 36 37 38 39 40 41 42 43 44 45 46 47 48 49 50

000
ASUS44 KMEG 181210
RWRTN
TENNESSEE HOURLY STATE WEATHER ROUNDUP
NATIONAL WEATHER SERVICE MEMPHIS TN
700 AM CDT THU SEP 18 2014

TNZ002-004-019-021-049-052-054-088>092-181300-
WEST TENNESSEE

CITY           SKY/WX    TMP DP  RH WIND       PRES   REMARKS
MEMPHIS INTL   CLOUDY    68  63  84 E3        29.93R
NWS MEMPHIS      N/A     65 N/A N/A MISG        N/A
JACKSON        LGT RAIN  64  61  88 E5        29.97S
DYERSBURG      CLOUDY    63  52  67 NE3       29.98R
UNION CITY     CLOUDY    61  59  94 NE3       29.97S
PARIS          MOCLDY    57  55  94 CALM      29.99R
HUNTINGDON     CLOUDY    60  58  93 NE5       29.98R
LEXINGTON      MOCLDY    61  61 100 CALM      29.97R
SAVANNAH       CLOUDY    63  63 100 CALM      29.97R
$$

TNZ008-025-027-028-033-062-065-066-181300-
NORTH MIDDLE TENNESSEE

CITY           SKY/WX    TMP DP  RH WIND       PRES   REMARKS
NASHVILLE      PTCLDY    59  57  93 CALM      30.00R
DICKSON        CLOUDY    57  57 100 CALM      29.99R
PORTLAND       CLEAR     54  52  94 CALM      30.00R
CLARKSVILLE    PTCLDY    57  55  93 CALM      30.00R FOG
LEBANON        PTCLDY    54  54 100 CALM      29.99R
SMYRNA         PTCLDY    57  57 100 CALM      30.01R
MURFREESBORO   CLOUDY    60  58  93 CALM      30.00R
COOKEVILLE     CLOUDY    54  54 100 CALM      30.01R VSB 0
LIVINGSTON     PTCLDY    58  55  89 CALM      30.02R
CROSSVILLE     CLEAR     57  53  86 CALM      30.03R
$$

TNZ061-075-076-078-094-096-097-181300-
SOUTH MIDDLE TENNESSEE

CITY           SKY/WX    TMP DP  RH WIND       PRES   REMARKS
LEWISBURG      MOCLDY    56  55  96 CALM      29.99R
FAYETTEVILLE   PTCLDY    57  57 100 NE5       29.99S
TULLAHOMA      MOCLDY    59  55  88 CALM      30.01R
WINCHESTER     CLOUDY    57  55  94 CALM      30.01R
MCMINNVILLE    CLEAR     55  55 100 CALM      30.00F
COLUMBIA       MOCLDY    59  59 100 CALM      29.98S
SHELBYVILLE    CLOUDY    61  57  88 CALM      30.01R
$$

TNZ017-018-042-046-047-181300-
NORTHEAST TENNESSEE

CITY           SKY/WX    TMP DP  RH WIND       PRES   REMARKS
TRI CITIES     FOG       56  53  90 CALM      30.03R VSB 1
ELIZABETHTON   PTSUNNY   54  54 100 CALM      30.04R
$$

TNZ012-013-036-069-073-074-181300-
CENTRAL EAST TENNESSEE

CITY           SKY/WX    TMP DP  RH WIND       PRES   REMARKS
KNOXVILLE      PTCLDY    60  58  92 CALM      30.00
OAK RIDGE      CLOUDY    61  58  90 CALM      30.02R
GATLINBURG     PTSUNNY   57  57 100 CALM      30.00S
MORRISTOWN     MOSUNNY   59  57  94 CALM      30.03R
$$

TNZ083-085-099-181300-
SOUTHEAST TENNESSEE

CITY           SKY/WX    TMP DP  RH WIND       PRES   REMARKS
CHATTANOOGA    MOCLDY    61  57  87 CALM      30.01R
$$

SKY/WX REPORTED AS FAIR MEANS FEW OR NO CLOUDS BELOW
12 THOUSAND FEET.




USA.gov is the U.S. government's official web portal to all federal, state and local government web resources and services.